When you browse on this site, cookies collect data to enhance your experience and personalize the content and advertising you see.
Visit our Privacy Policy to learn more. By continuing to use the site, you agree to this use of cookies and data.
  • In Austria
  • List of Countries
  • For 7 days
  • Water Temperature
  • Satellite Maps
  • Weather Map
  • News
  • Weather Widgets
  • user-avatar
    Login

    Hourly Weather Stamford

    Today, 17 February, Sunday

    Time Temperature Precipitation Wind Pressure Humidity
    00:00 -4°C° 0 mm 3 mps 761 mmHg 67%
    01:00 -5°C° 0 mm 3 mps 762 mmHg 67%
    02:00 -5°C° 0 mm 3 mps 762 mmHg 66%
    03:00 -5°C° 0 mm 4 mps 762 mmHg 66%
    04:00 -5°C° 0 mm 4 mps 762 mmHg 65%
    05:00 -5°C° 0 mm 3 mps 763 mmHg 65%
    06:00 -5°C° 0 mm 3 mps 763 mmHg 64%
    07:00 -5°C° 0 mm 3 mps 763 mmHg 64%
    08:00 -3°C° 0 mm 2 mps 763 mmHg 57%
    09:00 -2°C° 0 mm 2 mps 764 mmHg 51%
    10:00 +1°C° 0 mm 1 mps 764 mmHg 44%
    11:00 +2°C° 0 mm 1 mps 764 mmHg 41%
    12:00 +3°C° 0 mm 1 mps 763 mmHg 38%
    13:00 +5°C° 0 mm 1 mps 763 mmHg 35%
    14:00 +4°C° 0 mm 1 mps 763 mmHg 35%
    15:00 +4°C° 0 mm 1 mps 762 mmHg 36%
    16:00 +3°C° 0 mm 2 mps 762 mmHg 37%
    17:00 +2°C° 0 mm 2 mps 762 mmHg 41%
    18:00 +1°C° 0 mm 2 mps 762 mmHg 45%
    19:00 -1°C° 0 mm 2 mps 762 mmHg 50%
    20:00 -1°C° 0.5 mm 2 mps 762 mmHg 62%
    21:00 -1°C° 0.5 mm 3 mps 761 mmHg 75%
    22:00 -1°C° 0.5 mm 3 mps 761 mmHg 88%
    23:00 -1°C° 0.7 mm 3 mps 760 mmHg 90%

    Tomorrow, 18 February, Monday

    Time Temperature Precipitation Wind Pressure Humidity
    00:00 -1°C° 0.7 mm 3 mps 760 mmHg 91%
    01:00 -1°C° 0.7 mm 3 mps 759 mmHg 93%
    02:00 -1°C° 1 mm 3 mps 759 mmHg 94%
    03:00 0°C° 1 mm 3 mps 758 mmHg 95%
    04:00 0°C° 1 mm 3 mps 757 mmHg 96%
    05:00 0°C° 0.7 mm 3 mps 757 mmHg 96%
    06:00 0°C° 0.7 mm 3 mps 756 mmHg 96%
    07:00 0°C° 0.7 mm 3 mps 756 mmHg 96%
    08:00 0°C° 0.2 mm 3 mps 756 mmHg 96%
    09:00 0°C° 0.2 mm 3 mps 756 mmHg 96%
    10:00 +1°C° 0.2 mm 2 mps 756 mmHg 96%
    11:00 +2°C° 0.1 mm 2 mps 756 mmHg 95%
    12:00 +3°C° 0.1 mm 1 mps 756 mmHg 94%
    13:00 +4°C° 0.1 mm 1 mps 756 mmHg 94%
    14:00 +4°C° 0.1 mm 1 mps 756 mmHg 94%
    15:00 +4°C° 0.1 mm 1 mps 757 mmHg 94%
    16:00 +4°C° 0.1 mm 1 mps 758 mmHg 94%
    17:00 +2°C° 0.1 mm 2 mps 759 mmHg 89%
    18:00 0°C° 0.1 mm 4 mps 761 mmHg 84%
    19:00 -1°C° 0.1 mm 5 mps 762 mmHg 79%
    20:00 -2°C° 0 mm 5 mps 763 mmHg 77%
    21:00 -4°C° 0 mm 5 mps 764 mmHg 75%
    22:00 -5°C° 0 mm 6 mps 766 mmHg 73%
    23:00 -6°C° 0 mm 6 mps 766 mmHg 72%

    Day after tomorrow, 19 February, Tuesday

    Time Temperature Precipitation Wind Pressure Humidity
    00:00 -8°C° 0 mm 6 mps 767 mmHg 70%
    01:00 -8°C° 0 mm 6 mps 768 mmHg 68%
    02:00 -8°C° 0 mm 5 mps 768 mmHg 66%
    03:00 -8°C° 0 mm 5 mps 769 mmHg 64%
    04:00 -10°C° 0 mm 5 mps 770 mmHg 62%
    05:00 -9°C° 0 mm 4 mps 770 mmHg 62%
    06:00 -9°C° 0 mm 4 mps 771 mmHg 63%
    07:00 -8°C° 0 mm 3 mps 772 mmHg 63%
    08:00 -7°C° 0 mm 3 mps 772 mmHg 60%
    09:00 -6°C° 0 mm 3 mps 773 mmHg 57%
    10:00 -6°C° 0 mm 3 mps 773 mmHg 54%
    11:00 -5°C° 0 mm 3 mps 773 mmHg 52%
    12:00 -4°C° 0 mm 3 mps 773 mmHg 50%
    13:00 -1°C° 0 mm 3 mps 773 mmHg 49%
    14:00 -1°C° 0 mm 3 mps 773 mmHg 48%
    15:00 -1°C° 0 mm 3 mps 773 mmHg 48%
    16:00 -2°C° 0 mm 4 mps 773 mmHg 48%
    17:00 -2°C° 0 mm 3 mps 773 mmHg 52%
    18:00 -4°C° 0 mm 3 mps 774 mmHg 57%
    19:00 -4°C° 0 mm 3 mps 774 mmHg 61%
    20:00 -5°C° 0 mm 3 mps 774 mmHg 62%
    21:00 -4°C° 0 mm 2 mps 774 mmHg 64%
    22:00 -5°C° 0 mm 2 mps 775 mmHg 65%
    23:00 -5°C° 0 mm 2 mps 775 mmHg 65%

    20 February, Wednesday

    Time Temperature Precipitation Wind Pressure Humidity
    00:00 -5°C° 0 mm 2 mps 775 mmHg 66%
    01:00 -5°C° 0 mm 2 mps 775 mmHg 66%
    02:00 -6°C° 0 mm 2 mps 775 mmHg 67%
    03:00 -6°C° 0 mm 2 mps 775 mmHg 67%
    04:00 -6°C° 0 mm 2 mps 775 mmHg 68%
    05:00 -6°C° 0 mm 2 mps 775 mmHg 68%
    06:00 -6°C° 0 mm 2 mps 775 mmHg 68%
    07:00 -6°C° 0 mm 2 mps 774 mmHg 67%
    08:00 -5°C° 0 mm 2 mps 774 mmHg 64%
    09:00 -5°C° 0 mm 2 mps 774 mmHg 61%
    10:00 -4°C° 0 mm 2 mps 774 mmHg 58%
    11:00 -4°C° 0 mm 2 mps 773 mmHg 58%
    12:00 -4°C° 0 mm 3 mps 773 mmHg 58%
    13:00 -4°C° 0 mm 3 mps 772 mmHg 59%
    14:00 -4°C° 0.2 mm 3 mps 771 mmHg 65%
    15:00 -4°C° 0.2 mm 3 mps 770 mmHg 71%
    16:00 -4°C° 0.2 mm 4 mps 770 mmHg 78%
    17:00 -4°C° 0.2 mm 4 mps 769 mmHg 81%
    18:00 -3°C° 0.2 mm 4 mps 769 mmHg 84%
    19:00 -4°C° 0.2 mm 5 mps 768 mmHg 87%
    20:00 -2°C° 0.1 mm 5 mps 767 mmHg 89%
    21:00 -1°C° 0.1 mm 5 mps 766 mmHg 91%
    22:00 -1°C° 0.1 mm 5 mps 765 mmHg 93%
    23:00 0°C° 0.3 mm 4 mps 763 mmHg 94%

    21 February, Thursday

    Time Temperature Precipitation Wind Pressure Humidity
    00:00 0°C° 0.3 mm 4 mps 762 mmHg 96%
    01:00 +1°C° 0.3 mm 3 mps 761 mmHg 97%
    02:00 +2°C° 0.3 mm 2 mps 760 mmHg 98%
    03:00 +3°C° 0.3 mm 1 mps 759 mmHg 98%
    04:00 +2°C° 0.3 mm 0 mps 758 mmHg 99%
    05:00 +3°C° 0 mm 1 mps 758 mmHg 98%
    06:00 +3°C° 0 mm 1 mps 758 mmHg 97%
    07:00 +2°C° 0 mm 2 mps 758 mmHg 97%
    08:00 +2°C° 0 mm 3 mps 759 mmHg 90%
    09:00 +4°C° 0 mm 4 mps 759 mmHg 83%
    10:00 +6°C° 0 mm 5 mps 760 mmHg 76%
    11:00 +6°C° 0 mm 5 mps 760 mmHg 71%
    12:00 +5°C° 0 mm 6 mps 760 mmHg 66%
    13:00 +7°C° 0 mm 6 mps 761 mmHg 60%
    14:00 +5°C° 0 mm 6 mps 761 mmHg 61%
    15:00 +4°C° 0 mm 6 mps 762 mmHg 61%
    16:00 +4°C° 0 mm 6 mps 762 mmHg 62%
    17:00 +2°C° 0 mm 5 mps 763 mmHg 65%
    18:00 +1°C° 0 mm 4 mps 764 mmHg 69%
    19:00 0°C° 0 mm 4 mps 765 mmHg 72%
    20:00 -1°C° 0 mm 4 mps 766 mmHg 72%
    21:00 0°C° 0 mm 3 mps 767 mmHg 72%
    22:00 0°C° 0 mm 3 mps 767 mmHg 73%
    23:00 -1°C° 0 mm 3 mps 768 mmHg 73%

    22 February, Friday

    Time Temperature Precipitation Wind Pressure Humidity
    00:00 -1°C° 0 mm 3 mps 768 mmHg 74%
    01:00 -1°C° 0 mm 2 mps 768 mmHg 74%
    02:00 -1°C° 0 mm 2 mps 768 mmHg 75%
    03:00 -2°C° 0 mm 2 mps 768 mmHg 75%
    04:00 -2°C° 0 mm 2 mps 769 mmHg 76%
    05:00 -2°C° 0 mm 2 mps 769 mmHg 75%
    06:00 -2°C° 0 mm 2 mps 770 mmHg 75%
    07:00 -2°C° 0 mm 2 mps 770 mmHg 75%
    08:00 +1°C° 0 mm 1 mps 770 mmHg 70%
    09:00 +2°C° 0 mm 1 mps 770 mmHg 65%
    10:00 +3°C° 0 mm 1 mps 770 mmHg 61%
    11:00 +4°C° 0 mm 1 mps 770 mmHg 57%
    12:00 +5°C° 0 mm 1 mps 770 mmHg 53%
    13:00 +6°C° 0 mm 0 mps 769 mmHg 49%
    14:00 +7°C° 0 mm 1 mps 769 mmHg 50%
    15:00 +6°C° 0 mm 1 mps 769 mmHg 50%
    16:00 +6°C° 0 mm 1 mps 769 mmHg 51%
    17:00 +5°C° 0 mm 1 mps 769 mmHg 54%
    18:00 +4°C° 0 mm 1 mps 769 mmHg 58%
    19:00 +3°C° 0 mm 1 mps 769 mmHg 62%
    20:00 +3°C° 0 mm 1 mps 769 mmHg 65%
    21:00 +3°C° 0 mm 1 mps 770 mmHg 68%
    22:00 +2°C° 0 mm 1 mps 770 mmHg 71%
    23:00 +2°C° 0 mm 1 mps 769 mmHg 73%
    Show more